Weather Roundup
Issued by NWS Chicago, IL

Home | Current Version | Previous Version | Graphics & Text | Print | Product List | Glossary On
Versions: 1 2 3 4 5 6 7 8 9 10 11 12 13 14 15 16 17 18 19 20 21 22 23 24 25 26 27 28 29 30 31 32 33 34 35 36 37 38 39 40 41 42 43 44 45 46 47 48 49 50
823
NZUS59 KLOT 301503
HRRLOT

CHICAGO AREA WEATHER ROUNDUP
NATIONAL WEATHER SERVICE CHICAGO/ROMEOVILLE IL
1000 AM CDT SAT JUL 30 2016

NOTE: "FAIR" INDICATES FEW OR NO CLOUDS BELOW 12,000 FEET WITH NO
SIGNIFICANT WEATHER AND/OR OBSTRUCTIONS TO VISIBILITY.

* THESE STATIONS ARE NOT UNDER NWS QUALITY CONTROL. THEY ALSO MAY NOT
  REPORT WEATHER SUCH AS PRECIPITATION OR FOG.

ILZ005-006-012>014-019>023-301600-
NORTHEAST ILLINOIS

CITY           SKY/WX    TMP DP  RH WIND       PRES   REMARKS
OHARE          CLOUDY    72  65  78 NE7       29.98R
MIDWAY         PTSUNNY   73  65  75 E9        29.98R
AURORA         MOSUNNY   76  67  73 NE7       29.97F
LANSING*       CLOUDY    73  66  79 CALM      29.97S
WAUKEGAN       PTSUNNY   73  66  78 NE12      29.99S
DUPAGE AIRPORT CLOUDY    74  65  73 NE9       29.97S
WHEELING       CLOUDY    71  65  81 NE8       30.00R
KANKAKEE*      CLOUDY    71  69  94 CALM      29.97S
MORRIS*        MOSUNNY   76  68  77 CALM      29.95F
NORTHERLY ISL    N/A     70  65  84 NE9         N/A
$$

WIZ051-052-058>065-066-070>072-301600-
SOUTHEAST WISCONSIN

CITY           SKY/WX    TMP DP  RH WIND       PRES   REMARKS
MILWAUKEE      PTSUNNY   72  64  76 NE12      30.02S
KENOSHA*       CLOUDY    72  64  76 NE10      30.01S
RACINE*        CLOUDY    73  65  75 N12       30.03S
BURLINGTON     MOSUNNY   73  63  70 NE8       30.01S
WAUKESHA       MOSUNNY   72  61  68 E9        30.03S
$$

INZ001>003-010>013-019-020-301600-
NORTHWEST INDIANA

CITY           SKY/WX    TMP DP  RH WIND       PRES   REMARKS
GARY*          PTSUNNY   73  72  94 NE6       29.98R
MICHIGAN CITY* NOT AVBL
RENSSELAER*    NOT AVBL
VALPARAISO     CLOUDY    72  68  87 E5        29.98R
$$

LMZ740>746-301600-
SOUTHERN LAKE MICHIGAN

STATION/POSITION TIME  SKY/WX   TEMP WIND        PRES    VSBY
                                AIR  DIR/SP/G
                 (UTC)          (F)  (DEG/KT/KT) (MB)    (MI)
HARRISON CRIB    1400            70   60/ 10/ 11   N/A
BURNHAM HARBOR   1500            69   60/  7/ 10   N/A
CALUMET HARBOR   1400            70   40/  6/  8 1014.4R
BURNS HARBOR     1408            68   50/ 10/ 12 1015.2R
MICHIGAN CITY    1400            65   30/ 15/ 16   N/A
$$

ABBREVIATIONS USED IN REMARKS
   TC - TEMPERATURE IN CELSIUS
  WCI - WIND CHILL INDEX
   HX - HEAT INDEX
  VSB - VISIBILITY
$$




USA.gov is the U.S. government's official web portal to all federal, state and local government web resources and services.